Regional Weather Roundup
Issued by NWS Little Rock, AR

Home | Current Version | Previous Version | Graphics & Text | Print | Product List | Glossary On
Versions: 1 2 3 4 5 6 7 8 9 10 11 12 13 14 15 16 17 18 19 20 21 22 23 24 25 26 27 28 29 30 31 32 33 34 35 36 37 38 39 40 41 42 43 44 45 46 47 48 49 50
796
ASUS44 KLZK 140005
RWRLZK

WEATHER ROUNDUP FOR ARKANSAS
NATIONAL WEATHER SERVICE LITTLE ROCK AR
600 PM CST WED DEC 13 2017

NOTE: "FAIR" INDICATES FEW OR NO CLOUDS BELOW 12,000 FEET WITH NO
SIGNIFICANT WEATHER AND/OR OBSTRUCTIONS TO VISIBILITY.

ARZ001-003-010-029-140100-
NORTHWEST ARKANSAS

CITY           SKY/WX    TMP DP  RH WIND       PRES   REMARKS
FAYETTEVILLE   CLEAR     43  26  51 S6        29.86R
6HR MIN TEMP:  43; 6HR MAX TEMP:  59;

FORT SMITH     CLEAR     49  26  41 W8        29.86R
6HR MIN TEMP:  49; 6HR MAX TEMP:  64;

HARRISON       CLEAR     52  25  35 W7        29.82R
6HR MIN TEMP:  51; 6HR MAX TEMP:  62;

BENTONVILLE    CLEAR     50  26  39 W3        29.86R
6HR MIN TEMP:  50; 6HR MAX TEMP:  57;

ROGERS         CLEAR     50  26  39 SW6       29.84R
6HR MIN TEMP:  50; 6HR MAX TEMP:  58;

SILOAM SPGS    CLEAR     48  26  42 SW5       29.85S
6HR MIN TEMP:  48; 6HR MAX TEMP:  59;

HIGHFILL       CLEAR     46  26  45 SW5       29.84R
6HR MIN TEMP:  46; 6HR MAX TEMP:  59;

SPRINGDALE     CLEAR     52  25  35 W6        29.86R
$$

ARZ004-005-016-140100-
NORTH CENTRAL ARKANSAS

CITY           SKY/WX    TMP DP  RH WIND       PRES   REMARKS
BATESVILLE     CLEAR     51  25  36 SW9       29.79R
6HR MIN TEMP:  51; 6HR MAX TEMP:  61;

FLIPPIN        CLEAR     54  25  32 W8        29.80R
6HR MIN TEMP:  54; 6HR MAX TEMP:  64;

MTN HOME       CLEAR     54  29  38 VRB3      29.78
6HR MIN TEMP:  54; 6HR MAX TEMP:  62;

$$

ARZ040-041-140100-
WEST CENTRAL ARKANSAS

CITY           SKY/WX    TMP DP  RH WIND       PRES   REMARKS
MENA           CLEAR     59  27  29 SW6       29.87R
MOUNT IDA      CLEAR     56  27  32 CALM      29.83R
6HR MIN TEMP:  56; 6HR MAX TEMP:  69;

$$

ARZ009-017-025-026-028-140100-
NORTHEAST ARKANSAS

CITY           SKY/WX    TMP DP  RH WIND       PRES   REMARKS
JONESBORO      CLEAR     50  29  44 W5        29.77R
6HR MIN TEMP:  50; 6HR MAX TEMP:  58;

NEWPORT        CLEAR     43  29  57 SW7       29.78R
6HR MIN TEMP:  43; 6HR MAX TEMP:  61;

WALNUT RIDGE   CLEAR     50  26  39 SW10      29.76R
6HR MIN TEMP:  48; 6HR MAX TEMP:  60;

BLYTHEVILLE    CLEAR     46  30  53 SW10      29.77R
6HR MIN TEMP:  46; 6HR MAX TEMP:  56;

$$

ARZ022-023-033-042-044-140100-
CENTRAL ARKANSAS

CITY           SKY/WX    TMP DP  RH WIND       PRES   REMARKS
LITTLE ROCK    PTCLDY    57  25  29 W7        29.83R
6HR MIN TEMP:  55; 6HR MAX TEMP:  64;

N LITTLE ROCK    N/A     58  28  32 W6        29.85R
6HR MIN TEMP:  54; 6HR MAX TEMP:  65;

JACKSONVILLE   CLEAR     51  26  37 SW8       29.80R
6HR MIN TEMP:  51; 6HR MAX TEMP:  65;

SEARCY         CLEAR     55  27  34 W6        29.80R
6HR MIN TEMP:  54; 6HR MAX TEMP:  66;

HOT SPRINGS    CLEAR     59  28  30 W5        29.85R
6HR MIN TEMP:  57; 6HR MAX TEMP:  65;

RUSSELLVILLE   CLEAR     46  28  49 CALM      29.82R
6HR MIN TEMP:  46; 6HR MAX TEMP:  63;

CLINTON        FAIR      45  28  53 CALM      29.82R
$$

ARZ036-140100-
EAST ARKANSAS

CITY           SKY/WX    TMP DP  RH WIND       PRES   REMARKS
WEST MEMPHIS   CLOUDY    53  27  36 S8        29.79S
6HR MIN TEMP:  51; 6HR MAX TEMP:  59; 6HR PCP: TRACE;

$$

ARZ050-053-066-070-073-140100-
SOUTHWEST ARKANSAS

CITY           SKY/WX    TMP DP  RH WIND       PRES   REMARKS
ARKADELPHIA    FAIR      50  27  40 SW3       29.86R
6HR MIN TEMP:  50; 6HR MAX TEMP:  68;

CAMDEN         CLEAR     55  23  28 S5        29.87R
TEXARKANA      CLEAR     56  28  34 S9        29.87S
6HR MIN TEMP:  56; 6HR MAX TEMP:  66;

EL DORADO      CLEAR     52  30  43 S8        29.88S
6HR MIN TEMP:  52; 6HR MAX TEMP:  64;

DE QUEEN       CLEAR     52  30  43 CALM      29.84R
6HR MIN TEMP:  52; 6HR MAX TEMP:  69;

$$

ARZ056-057-069-140100-
SOUTHEAST ARKANSAS

CITY           SKY/WX    TMP DP  RH WIND       PRES   REMARKS
PINE BLUFF     CLEAR     54  27  35 SW9       29.84S
6HR MIN TEMP:  54; 6HR MAX TEMP:  64;

STUTTGART      CLEAR     50  30  46 SW9       29.82R
6HR MIN TEMP:  49; 6HR MAX TEMP:  63;

MONTICELLO     CLEAR     56  24  29 SW7       29.87R
6HR MIN TEMP:  56; 6HR MAX TEMP:  64;


$$






USA.gov is the U.S. government's official web portal to all federal, state and local government web resources and services.